owner,sensor,date,latitude,longitude,vertical_datum,wind_speed,wind_to_direction,wind_speed_of_gust,qcFlag 
WAVCIS,ioos:station:WAVCIS:CSI06:1,2012-03-01T00:00:00Z,28.8667,-90.4833,10.0,6.5,155.0,,'11111222,11111222,99999999' 
WAVCIS,ioos:station:WAVCIS:CSI06:1,2012-03-01T01:00:00Z,28.8667,-90.4833,10.0,5.72,155.0,,'11111222,11111222,99999999' 
WAVCIS,ioos:station:WAVCIS:CSI06:1,2012-03-01T02:00:00Z,28.8667,-90.4833,10.0,5.637,157.0,,'11111222,11111222,99999999' 
WAVCIS,ioos:station:WAVCIS:CSI06:1,2012-03-01T03:00:00Z,28.8667,-90.4833,10.0,5.765,164.0,,'11111222,11111222,99999999' 
WAVCIS,ioos:station:WAVCIS:CSI06:1,2012-03-01T04:00:00Z,28.8667,-90.4833,10.0,7.09,173.0,,'11111222,11111222,99999999' 
WAVCIS,ioos:station:WAVCIS:CSI06:1,2012-03-01T05:00:00Z,28.8667,-90.4833,10.0,8.33,180.0,,'11111222,11111222,99999999' 
WAVCIS,ioos:station:WAVCIS:CSI06:1,2012-03-01T06:00:00Z,28.8667,-90.4833,10.0,8.42,185.0,,'11111222,11111222,99999999' 
WAVCIS,ioos:station:WAVCIS:CSI06:1,2012-03-01T07:00:00Z,28.8667,-90.4833,10.0,7.28,192.0,,'11111222,11111222,99999999' 
WAVCIS,ioos:station:WAVCIS:CSI06:1,2012-03-01T08:00:00Z,28.8667,-90.4833,10.0,7.52,197.0,,'11111222,11111222,99999999' 
WAVCIS,ioos:station:WAVCIS:CSI06:1,2012-03-01T09:00:00Z,28.8667,-90.4833,10.0,7.5,200.0,,'11111222,11111222,99999999' 
WAVCIS,ioos:station:WAVCIS:CSI06:1,2012-03-01T10:00:00Z,28.8667,-90.4833,10.0,6.954,211.0,,'11111222,11111222,99999999' 
WAVCIS,ioos:station:WAVCIS:CSI06:1,2012-03-01T11:00:00Z,28.8667,-90.4833,10.0,6.283,211.0,,'11111222,11111222,99999999' 
WAVCIS,ioos:station:WAVCIS:CSI06:1,2012-03-01T12:00:00Z,28.8667,-90.4833,10.0,4.438,202.0,,'11111222,11111222,99999999' 
WAVCIS,ioos:station:WAVCIS:CSI06:1,2012-03-01T13:00:00Z,28.8667,-90.4833,10.0,4.852,197.0,,'11111222,11111222,99999999' 
WAVCIS,ioos:station:WAVCIS:CSI06:1,2012-03-01T14:00:00Z,28.8667,-90.4833,10.0,4.018,187.0,,'11111222,11111222,99999999' 
WAVCIS,ioos:station:WAVCIS:CSI06:1,2012-03-01T15:00:00Z,28.8667,-90.4833,10.0,6.719,191.0,,'11111222,11111222,99999999' 
WAVCIS,ioos:station:WAVCIS:CSI06:1,2012-03-01T16:00:00Z,28.8667,-90.4833,10.0,7.53,192.0,,'11111222,11111222,99999999' 
WAVCIS,ioos:station:WAVCIS:CSI06:1,2012-03-01T17:00:00Z,28.8667,-90.4833,10.0,7.48,183.0,,'11111222,11111222,99999999' 
WAVCIS,ioos:station:WAVCIS:CSI06:1,2012-03-01T18:00:00Z,28.8667,-90.4833,10.0,6.92,187.0,,'11111222,11111222,99999999' 
WAVCIS,ioos:station:WAVCIS:CSI06:1,2012-03-01T19:00:00Z,28.8667,-90.4833,10.0,6.321,188.0,,'11111222,11111222,99999999' 
WAVCIS,ioos:station:WAVCIS:CSI06:1,2012-03-01T20:00:00Z,28.8667,-90.4833,10.0,7.55,177.0,,'11111222,11111222,99999999' 
WAVCIS,ioos:station:WAVCIS:CSI06:1,2012-03-01T21:00:00Z,28.8667,-90.4833,10.0,6.552,171.0,,'11111222,11111222,99999999' 
WAVCIS,ioos:station:WAVCIS:CSI06:1,2012-03-01T22:00:00Z,28.8667,-90.4833,10.0,5.507,184.0,,'11111222,11111222,99999999' 
WAVCIS,ioos:station:WAVCIS:CSI06:1,2012-03-01T23:00:00Z,28.8667,-90.4833,10.0,5.931,176.0,,'11111222,11111222,99999999' 
WAVCIS,ioos:station:WAVCIS:CSI06:1,2012-03-02T00:00:00Z,28.8667,-90.4833,10.0,6.445,172.0,,'11111222,11111222,99999999' 
WAVCIS,ioos:station:WAVCIS:CSI06:1,2012-03-02T01:00:00Z,28.8667,-90.4833,10.0,6.746,171.0,,'11111222,11111222,99999999' 
WAVCIS,ioos:station:WAVCIS:CSI06:1,2012-03-02T02:00:00Z,28.8667,-90.4833,10.0,7.22,172.0,,'11111222,11111222,99999999' 
WAVCIS,ioos:station:WAVCIS:CSI06:1,2012-03-02T03:00:00Z,28.8667,-90.4833,10.0,7.75,170.0,,'11111222,11111222,99999999' 
WAVCIS,ioos:station:WAVCIS:CSI06:1,2012-03-02T04:00:00Z,28.8667,-90.4833,10.0,9.1,169.0,,'11111222,11111222,99999999' 
WAVCIS,ioos:station:WAVCIS:CSI06:1,2012-03-02T05:00:00Z,28.8667,-90.4833,10.0,9.17,171.0,,'11111222,11111222,99999999' 
WAVCIS,ioos:station:WAVCIS:CSI06:1,2012-03-02T06:00:00Z,28.8667,-90.4833,10.0,9.21,171.0,,'11111222,11111222,99999999' 
WAVCIS,ioos:station:WAVCIS:CSI06:1,2012-03-02T07:00:00Z,28.8667,-90.4833,10.0,8.31,173.0,,'11111222,11111222,99999999' 
WAVCIS,ioos:station:WAVCIS:CSI06:1,2012-03-02T08:00:00Z,28.8667,-90.4833,10.0,7.5,180.0,,'11111222,11111222,99999999' 
WAVCIS,ioos:station:WAVCIS:CSI06:1,2012-03-02T09:00:00Z,28.8667,-90.4833,10.0,7.46,179.0,,'11111222,11111222,99999999' 
WAVCIS,ioos:station:WAVCIS:CSI06:1,2012-03-02T10:00:00Z,28.8667,-90.4833,10.0,7.48,181.0,,'11111222,11111222,99999999' 
WAVCIS,ioos:station:WAVCIS:CSI06:1,2012-03-02T11:00:00Z,28.8667,-90.4833,10.0,8.07,174.0,,'11111222,11111222,99999999' 
WAVCIS,ioos:station:WAVCIS:CSI06:1,2012-03-02T12:00:00Z,28.8667,-90.4833,10.0,6.455,171.0,,'11111222,11111222,99999999' 
WAVCIS,ioos:station:WAVCIS:CSI06:1,2012-03-02T13:00:00Z,28.8667,-90.4833,10.0,6.828,172.0,,'11111222,11111222,99999999' 
WAVCIS,ioos:station:WAVCIS:CSI06:1,2012-03-02T14:00:00Z,28.8667,-90.4833,10.0,7.73,166.0,,'11111222,11111222,99999999' 
WAVCIS,ioos:station:WAVCIS:CSI06:1,2012-03-02T15:00:00Z,28.8667,-90.4833,10.0,6.06,167.0,,'11111222,11111222,99999999' 
WAVCIS,ioos:station:WAVCIS:CSI06:1,2012-03-02T16:00:00Z,28.8667,-90.4833,10.0,5.446,161.0,,'11111222,11111222,99999999' 
WAVCIS,ioos:station:WAVCIS:CSI06:1,2012-03-02T17:00:00Z,28.8667,-90.4833,10.0,6.085,159.0,,'11111222,11111222,99999999' 
WAVCIS,ioos:station:WAVCIS:CSI06:1,2012-03-02T18:00:00Z,28.8667,-90.4833,10.0,7.9,158.0,,'11111222,11111222,99999999' 
WAVCIS,ioos:station:WAVCIS:CSI06:1,2012-03-02T19:00:00Z,28.8667,-90.4833,10.0,6.563,159.0,,'11111222,11111222,99999999' 
WAVCIS,ioos:station:WAVCIS:CSI06:1,2012-03-02T20:00:00Z,28.8667,-90.4833,10.0,8.83,175.0,,'11111222,11111222,99999999' 
WAVCIS,ioos:station:WAVCIS:CSI06:1,2012-03-02T21:00:00Z,28.8667,-90.4833,10.0,8.25,187.0,,'11111222,11111222,99999999' 
WAVCIS,ioos:station:WAVCIS:CSI06:1,2012-03-02T22:00:00Z,28.8667,-90.4833,10.0,8.82,188.0,,'11111222,11111222,99999999' 
WAVCIS,ioos:station:WAVCIS:CSI06:1,2012-03-02T23:00:00Z,28.8667,-90.4833,10.0,8.64,193.0,,'11111222,11111222,99999999' 
WAVCIS,ioos:station:WAVCIS:CSI06:1,2012-03-03T00:00:00Z,28.8667,-90.4833,10.0,8.68,189.0,,'11111222,11111222,99999999' 
WAVCIS,ioos:station:WAVCIS:CSI06:1,2012-03-03T01:00:00Z,28.8667,-90.4833,10.0,10.32,183.0,,'11111222,11111222,99999999' 
WAVCIS,ioos:station:WAVCIS:CSI06:1,2012-03-03T02:00:00Z,28.8667,-90.4833,10.0,9.83,179.0,,'11111222,11111222,99999999' 
WAVCIS,ioos:station:WAVCIS:CSI06:1,2012-03-03T03:00:00Z,28.8667,-90.4833,10.0,8.8,180.0,,'11111222,11111222,99999999' 
WAVCIS,ioos:station:WAVCIS:CSI06:1,2012-03-03T04:00:00Z,28.8667,-90.4833,10.0,8.95,180.0,,'11111222,11111222,99999999' 
WAVCIS,ioos:station:WAVCIS:CSI06:1,2012-03-03T05:00:00Z,28.8667,-90.4833,10.0,8.43,185.0,,'11111222,11111222,99999999' 
WAVCIS,ioos:station:WAVCIS:CSI06:1,2012-03-03T06:00:00Z,28.8667,-90.4833,10.0,7.81,187.0,,'11111222,11111222,99999999' 
WAVCIS,ioos:station:WAVCIS:CSI06:1,2012-03-03T07:00:00Z,28.8667,-90.4833,10.0,6.5,194.0,,'11111222,11111222,99999999' 
WAVCIS,ioos:station:WAVCIS:CSI06:1,2012-03-03T08:00:00Z,28.8667,-90.4833,10.0,6.904,195.0,,'11111222,11111222,99999999' 
WAVCIS,ioos:station:WAVCIS:CSI06:1,2012-03-03T09:00:00Z,28.8667,-90.4833,10.0,5.774,202.0,,'11111222,11111222,99999999' 
WAVCIS,ioos:station:WAVCIS:CSI06:1,2012-03-03T10:00:00Z,28.8667,-90.4833,10.0,3.399,212.0,,'11111222,11111222,99999999' 
WAVCIS,ioos:station:WAVCIS:CSI06:1,2012-03-03T11:00:00Z,28.8667,-90.4833,10.0,1.771,187.0,,'11111222,11111222,99999999' 
WAVCIS,ioos:station:WAVCIS:CSI06:1,2012-03-03T12:00:00Z,28.8667,-90.4833,10.0,1.369,152.0,,'11111222,11111222,99999999' 
WAVCIS,ioos:station:WAVCIS:CSI06:1,2012-03-03T13:00:00Z,28.8667,-90.4833,10.0,0.708,171.0,,'11111222,11111222,99999999' 
WAVCIS,ioos:station:WAVCIS:CSI06:1,2012-03-03T14:00:00Z,28.8667,-90.4833,10.0,1.798,173.0,,'11111222,11111222,99999999' 
WAVCIS,ioos:station:WAVCIS:CSI06:1,2012-03-03T15:00:00Z,28.8667,-90.4833,10.0,5.948,229.0,,'11111222,11111222,99999999' 
WAVCIS,ioos:station:WAVCIS:CSI06:1,2012-03-03T16:00:00Z,28.8667,-90.4833,10.0,8.66,7.0,,'11111222,11111222,99999999' 
WAVCIS,ioos:station:WAVCIS:CSI06:1,2012-03-03T17:00:00Z,28.8667,-90.4833,10.0,15.2,13.0,,'11111222,11111222,99999999' 
WAVCIS,ioos:station:WAVCIS:CSI06:1,2012-03-03T18:00:00Z,28.8667,-90.4833,10.0,15.33,21.0,,'11111222,11111222,99999999' 
WAVCIS,ioos:station:WAVCIS:CSI06:1,2012-03-03T19:00:00Z,28.8667,-90.4833,10.0,12.87,29.0,,'11111222,11111222,99999999' 
WAVCIS,ioos:station:WAVCIS:CSI06:1,2012-03-03T20:00:00Z,28.8667,-90.4833,10.0,11.43,30.0,,'11111222,11111222,99999999' 
WAVCIS,ioos:station:WAVCIS:CSI06:1,2012-03-03T21:00:00Z,28.8667,-90.4833,10.0,11.21,31.0,,'11111222,11111222,99999999' 
WAVCIS,ioos:station:WAVCIS:CSI06:1,2012-03-03T22:00:00Z,28.8667,-90.4833,10.0,13.36,14.0,,'11111222,11111222,99999999' 
WAVCIS,ioos:station:WAVCIS:CSI06:1,2012-03-03T23:00:00Z,28.8667,-90.4833,10.0,11.63,12.0,,'11111222,11111222,99999999' 
WAVCIS,ioos:station:WAVCIS:CSI06:1,2012-03-04T00:00:00Z,28.8667,-90.4833,10.0,11.62,11.0,,'11111222,11111222,99999999' 
WAVCIS,ioos:station:WAVCIS:CSI06:1,2012-03-04T01:00:00Z,28.8667,-90.4833,10.0,9.73,5.0,,'11111222,11111222,99999999' 
WAVCIS,ioos:station:WAVCIS:CSI06:1,2012-03-04T02:00:00Z,28.8667,-90.4833,10.0,10.37,4.0,,'11111222,11111222,99999999' 
WAVCIS,ioos:station:WAVCIS:CSI06:1,2012-03-04T03:00:00Z,28.8667,-90.4833,10.0,11.81,5.0,,'11111222,11111222,99999999' 
WAVCIS,ioos:station:WAVCIS:CSI06:1,2012-03-04T04:00:00Z,28.8667,-90.4833,10.0,11.08,349.0,,'11111222,11111222,99999999' 
WAVCIS,ioos:station:WAVCIS:CSI06:1,2012-03-04T05:00:00Z,28.8667,-90.4833,10.0,10.42,350.0,,'11111222,11111222,99999999' 
WAVCIS,ioos:station:WAVCIS:CSI06:1,2012-03-04T06:00:00Z,28.8667,-90.4833,10.0,9.68,4.0,,'11111222,11111222,99999999' 
WAVCIS,ioos:station:WAVCIS:CSI06:1,2012-03-04T07:00:00Z,28.8667,-90.4833,10.0,7.14,2.0,,'11111222,11111222,99999999' 
WAVCIS,ioos:station:WAVCIS:CSI06:1,2012-03-04T08:00:00Z,28.8667,-90.4833,10.0,6.845,351.0,,'11111222,11111222,99999999' 
WAVCIS,ioos:station:WAVCIS:CSI06:1,2012-03-04T09:00:00Z,28.8667,-90.4833,10.0,7.73,338.0,,'11111222,11111222,99999999' 
WAVCIS,ioos:station:WAVCIS:CSI06:1,2012-03-04T10:00:00Z,28.8667,-90.4833,10.0,8.81,330.0,,'11111222,11111222,99999999' 
WAVCIS,ioos:station:WAVCIS:CSI06:1,2012-03-04T11:00:00Z,28.8667,-90.4833,10.0,9.42,331.0,,'11111222,11111222,99999999' 
WAVCIS,ioos:station:WAVCIS:CSI06:1,2012-03-04T12:00:00Z,28.8667,-90.4833,10.0,9.11,332.0,,'11111222,11111222,99999999' 
WAVCIS,ioos:station:WAVCIS:CSI06:1,2012-03-04T13:00:00Z,28.8667,-90.4833,10.0,7.61,337.0,,'11111222,11111222,99999999' 
WAVCIS,ioos:station:WAVCIS:CSI06:1,2012-03-04T14:00:00Z,28.8667,-90.4833,10.0,6.125,341.0,,'11111222,11111222,99999999' 
WAVCIS,ioos:station:WAVCIS:CSI06:1,2012-03-04T15:00:00Z,28.8667,-90.4833,10.0,4.44,5.0,,'11111222,11111222,99999999' 
WAVCIS,ioos:station:WAVCIS:CSI06:1,2012-03-04T16:00:00Z,28.8667,-90.4833,10.0,4.109,10.0,,'11111222,11111222,99999999' 
WAVCIS,ioos:station:WAVCIS:CSI06:1,2012-03-04T17:00:00Z,28.8667,-90.4833,10.0,3.306,349.0,,'11111222,11111222,99999999' 
WAVCIS,ioos:station:WAVCIS:CSI06:1,2012-03-04T18:00:00Z,28.8667,-90.4833,10.0,3.785,311.0,,'11111222,11111222,99999999' 
WAVCIS,ioos:station:WAVCIS:CSI06:1,2012-03-04T19:00:00Z,28.8667,-90.4833,10.0,3.851,295.0,,'11111222,11111222,99999999' 
WAVCIS,ioos:station:WAVCIS:CSI06:1,2012-03-04T20:00:00Z,28.8667,-90.4833,10.0,6.281,281.0,,'11111222,11111222,99999999' 
WAVCIS,ioos:station:WAVCIS:CSI06:1,2012-03-04T21:00:00Z,28.8667,-90.4833,10.0,6.965,269.0,,'11111222,11111222,99999999' 
WAVCIS,ioos:station:WAVCIS:CSI06:1,2012-03-04T22:00:00Z,28.8667,-90.4833,10.0,7.37,277.0,,'11111222,11111222,99999999' 
WAVCIS,ioos:station:WAVCIS:CSI06:1,2012-03-04T23:00:00Z,28.8667,-90.4833,10.0,8.76,273.0,,'11111222,11111222,99999999' 
WAVCIS,ioos:station:WAVCIS:CSI06:1,2012-03-05T00:00:00Z,28.8667,-90.4833,10.0,8.18,272.0,,'11111222,11111222,99999999' 
WAVCIS,ioos:station:WAVCIS:CSI06:1,2012-03-05T01:00:00Z,28.8667,-90.4833,10.0,8.3,266.0,,'11111222,11111222,99999999' 
WAVCIS,ioos:station:WAVCIS:CSI06:1,2012-03-05T02:00:00Z,28.8667,-90.4833,10.0,7.44,265.0,,'11111222,11111222,99999999' 
WAVCIS,ioos:station:WAVCIS:CSI06:1,2012-03-05T03:00:00Z,28.8667,-90.4833,10.0,7.13,263.0,,'11111222,11111222,99999999' 
WAVCIS,ioos:station:WAVCIS:CSI06:1,2012-03-05T04:00:00Z,28.8667,-90.4833,10.0,6.263,261.0,,'11111222,11111222,99999999' 
WAVCIS,ioos:station:WAVCIS:CSI06:1,2012-03-05T05:00:00Z,28.8667,-90.4833,10.0,7.01,263.0,,'11111222,11111222,99999999' 
WAVCIS,ioos:station:WAVCIS:CSI06:1,2012-03-05T06:00:00Z,28.8667,-90.4833,10.0,8.25,275.0,,'11111222,11111222,99999999' 
WAVCIS,ioos:station:WAVCIS:CSI06:1,2012-03-05T07:00:00Z,28.8667,-90.4833,10.0,7.93,279.0,,'11111222,11111222,99999999' 
WAVCIS,ioos:station:WAVCIS:CSI06:1,2012-03-05T08:00:00Z,28.8667,-90.4833,10.0,7.37,280.0,,'11111222,11111222,99999999' 
WAVCIS,ioos:station:WAVCIS:CSI06:1,2012-03-05T09:00:00Z,28.8667,-90.4833,10.0,7.93,295.0,,'11111222,11111222,99999999' 
WAVCIS,ioos:station:WAVCIS:CSI06:1,2012-03-05T10:00:00Z,28.8667,-90.4833,10.0,7.74,296.0,,'11111222,11111222,99999999' 
WAVCIS,ioos:station:WAVCIS:CSI06:1,2012-03-05T11:00:00Z,28.8667,-90.4833,10.0,7.09,310.0,,'11111222,11111222,99999999' 
WAVCIS,ioos:station:WAVCIS:CSI06:1,2012-03-05T12:00:00Z,28.8667,-90.4833,10.0,5.593,303.0,,'11111222,11111222,99999999' 
WAVCIS,ioos:station:WAVCIS:CSI06:1,2012-03-05T13:00:00Z,28.8667,-90.4833,10.0,5.38,317.0,,'11111222,11111222,99999999' 
WAVCIS,ioos:station:WAVCIS:CSI06:1,2012-03-05T14:00:00Z,28.8667,-90.4833,10.0,4.268,324.0,,'11111222,11111222,99999999' 
WAVCIS,ioos:station:WAVCIS:CSI06:1,2012-03-05T15:00:00Z,28.8667,-90.4833,10.0,2.323,323.0,,'11111222,11111222,99999999' 
WAVCIS,ioos:station:WAVCIS:CSI06:1,2012-03-05T16:00:00Z,28.8667,-90.4833,10.0,2.216,321.0,,'11111222,11111222,99999999' 
WAVCIS,ioos:station:WAVCIS:CSI06:1,2012-03-05T17:00:00Z,28.8667,-90.4833,10.0,1.771,308.0,,'11111222,11111222,99999999' 
WAVCIS,ioos:station:WAVCIS:CSI06:1,2012-03-05T18:00:00Z,28.8667,-90.4833,10.0,1.866,264.0,,'11111222,11111222,99999999' 
WAVCIS,ioos:station:WAVCIS:CSI06:1,2012-03-05T19:00:00Z,28.8667,-90.4833,10.0,2.543,255.0,,'11111222,11111222,99999999' 
WAVCIS,ioos:station:WAVCIS:CSI06:1,2012-03-05T20:00:00Z,28.8667,-90.4833,10.0,3.096,235.0,,'11111222,11111222,99999999' 
WAVCIS,ioos:station:WAVCIS:CSI06:1,2012-03-05T21:00:00Z,28.8667,-90.4833,10.0,3.384,246.0,,'11111222,11111222,99999999' 
WAVCIS,ioos:station:WAVCIS:CSI06:1,2012-03-05T22:00:00Z,28.8667,-90.4833,10.0,3.717,257.0,,'11111222,11111222,99999999' 
WAVCIS,ioos:station:WAVCIS:CSI06:1,2012-03-05T23:00:00Z,28.8667,-90.4833,10.0,3.972,242.0,,'11111222,11111222,99999999' 
WAVCIS,ioos:station:WAVCIS:CSI06:1,2012-03-06T00:00:00Z,28.8667,-90.4833,10.0,3.435,254.0,,'11111222,11111222,99999999' 
WAVCIS,ioos:station:WAVCIS:CSI06:1,2012-03-06T01:00:00Z,28.8667,-90.4833,10.0,3.335,258.0,,'11111222,11111222,99999999' 
WAVCIS,ioos:station:WAVCIS:CSI06:1,2012-03-06T02:00:00Z,28.8667,-90.4833,10.0,3.32,255.0,,'11111222,11111222,99999999' 
WAVCIS,ioos:station:WAVCIS:CSI06:1,2012-03-06T03:00:00Z,28.8667,-90.4833,10.0,2.841,259.0,,'11111222,11111222,99999999' 
WAVCIS,ioos:station:WAVCIS:CSI06:1,2012-03-06T04:00:00Z,28.8667,-90.4833,10.0,2.881,247.0,,'11111222,11111222,99999999' 
WAVCIS,ioos:station:WAVCIS:CSI06:1,2012-03-06T05:00:00Z,28.8667,-90.4833,10.0,2.703,260.0,,'11111222,11111222,99999999' 
WAVCIS,ioos:station:WAVCIS:CSI06:1,2012-03-06T06:00:00Z,28.8667,-90.4833,10.0,2.024,253.0,,'11111222,11111222,99999999' 
WAVCIS,ioos:station:WAVCIS:CSI06:1,2012-03-06T07:00:00Z,28.8667,-90.4833,10.0,1.477,247.0,,'11111222,11111222,99999999' 
WAVCIS,ioos:station:WAVCIS:CSI06:1,2012-03-06T08:00:00Z,28.8667,-90.4833,10.0,0.771,256.0,,'11111222,11111222,99999999' 
WAVCIS,ioos:station:WAVCIS:CSI06:1,2012-03-06T09:00:00Z,28.8667,-90.4833,10.0,0.003,304.0,,'11111222,11111222,99999999' 
WAVCIS,ioos:station:WAVCIS:CSI06:1,2012-03-06T10:00:00Z,28.8667,-90.4833,10.0,1.474,73.0,,'11111222,11111222,99999999' 
WAVCIS,ioos:station:WAVCIS:CSI06:1,2012-03-06T11:00:00Z,28.8667,-90.4833,10.0,3.725,60.0,,'11111222,11111222,99999999' 
WAVCIS,ioos:station:WAVCIS:CSI06:1,2012-03-06T12:00:00Z,28.8667,-90.4833,10.0,5.93,69.0,,'11111222,11111222,99999999' 
WAVCIS,ioos:station:WAVCIS:CSI06:1,2012-03-06T13:00:00Z,28.8667,-90.4833,10.0,7.23,78.0,,'11111222,11111222,99999999' 
WAVCIS,ioos:station:WAVCIS:CSI06:1,2012-03-06T14:00:00Z,28.8667,-90.4833,10.0,7.53,88.0,,'11111222,11111222,99999999' 
WAVCIS,ioos:station:WAVCIS:CSI06:1,2012-03-06T15:00:00Z,28.8667,-90.4833,10.0,7.16,94.0,,'11111222,11111222,99999999' 
WAVCIS,ioos:station:WAVCIS:CSI06:1,2012-03-06T16:00:00Z,28.8667,-90.4833,10.0,6.21,94.0,,'11111222,11111222,99999999' 
WAVCIS,ioos:station:WAVCIS:CSI06:1,2012-03-06T17:00:00Z,28.8667,-90.4833,10.0,5.978,96.0,,'11111222,11111222,99999999' 
WAVCIS,ioos:station:WAVCIS:CSI06:1,2012-03-06T18:00:00Z,28.8667,-90.4833,10.0,5.505,90.0,,'11111222,11111222,99999999' 
WAVCIS,ioos:station:WAVCIS:CSI06:1,2012-03-06T19:00:00Z,28.8667,-90.4833,10.0,7.56,87.0,,'11111222,11111222,99999999' 
WAVCIS,ioos:station:WAVCIS:CSI06:1,2012-03-06T20:00:00Z,28.8667,-90.4833,10.0,7.64,97.0,,'11111222,11111222,99999999' 
WAVCIS,ioos:station:WAVCIS:CSI06:1,2012-03-06T21:00:00Z,28.8667,-90.4833,10.0,7.68,111.0,,'11111222,11111222,99999999' 
WAVCIS,ioos:station:WAVCIS:CSI06:1,2012-03-06T22:00:00Z,28.8667,-90.4833,10.0,6.689,116.0,,'11111222,11111222,99999999' 
WAVCIS,ioos:station:WAVCIS:CSI06:1,2012-03-06T23:00:00Z,28.8667,-90.4833,10.0,7.06,114.0,,'11111222,11111222,99999999' 
WAVCIS,ioos:station:WAVCIS:CSI06:1,2012-03-07T00:00:00Z,28.8667,-90.4833,10.0,7.86,111.0,,'11111222,11111222,99999999' 
WAVCIS,ioos:station:WAVCIS:CSI06:1,2012-03-07T01:00:00Z,28.8667,-90.4833,10.0,7.79,117.0,,'11111222,11111222,99999999' 
WAVCIS,ioos:station:WAVCIS:CSI06:1,2012-03-07T02:00:00Z,28.8667,-90.4833,10.0,8.72,109.0,,'11111222,11111222,99999999' 
WAVCIS,ioos:station:WAVCIS:CSI06:1,2012-03-07T03:00:00Z,28.8667,-90.4833,10.0,8.66,111.0,,'11111222,11111222,99999999' 
WAVCIS,ioos:station:WAVCIS:CSI06:1,2012-03-07T04:00:00Z,28.8667,-90.4833,10.0,10.75,113.0,,'11111222,11111222,99999999' 
WAVCIS,ioos:station:WAVCIS:CSI06:1,2012-03-07T05:00:00Z,28.8667,-90.4833,10.0,10.55,123.0,,'11111222,11111222,99999999' 
WAVCIS,ioos:station:WAVCIS:CSI06:1,2012-03-07T06:00:00Z,28.8667,-90.4833,10.0,10.12,129.0,,'11111222,11111222,99999999' 
WAVCIS,ioos:station:WAVCIS:CSI06:1,2012-03-07T07:00:00Z,28.8667,-90.4833,10.0,11.13,127.0,,'11111222,11111222,99999999' 
WAVCIS,ioos:station:WAVCIS:CSI06:1,2012-03-07T08:00:00Z,28.8667,-90.4833,10.0,10.85,131.0,,'11111222,11111222,99999999' 
WAVCIS,ioos:station:WAVCIS:CSI06:1,2012-03-07T09:00:00Z,28.8667,-90.4833,10.0,10.2,130.0,,'11111222,11111222,99999999' 
WAVCIS,ioos:station:WAVCIS:CSI06:1,2012-03-07T10:00:00Z,28.8667,-90.4833,10.0,10.9,134.0,,'11111222,11111222,99999999' 
WAVCIS,ioos:station:WAVCIS:CSI06:1,2012-03-07T11:00:00Z,28.8667,-90.4833,10.0,9.52,132.0,,'11111222,11111222,99999999' 
WAVCIS,ioos:station:WAVCIS:CSI06:1,2012-03-07T12:00:00Z,28.8667,-90.4833,10.0,7.54,125.0,,'11111222,11111222,99999999' 
WAVCIS,ioos:station:WAVCIS:CSI06:1,2012-03-07T13:00:00Z,28.8667,-90.4833,10.0,8.02,127.0,,'11111222,11111222,99999999' 
WAVCIS,ioos:station:WAVCIS:CSI06:1,2012-03-07T14:00:00Z,28.8667,-90.4833,10.0,8.59,121.0,,'11111222,11111222,99999999' 
WAVCIS,ioos:station:WAVCIS:CSI06:1,2012-03-07T15:00:00Z,28.8667,-90.4833,10.0,7.36,107.0,,'11111222,11111222,99999999' 
WAVCIS,ioos:station:WAVCIS:CSI06:1,2012-03-07T16:00:00Z,28.8667,-90.4833,10.0,9.34,119.0,,'11111222,11111222,99999999' 
WAVCIS,ioos:station:WAVCIS:CSI06:1,2012-03-07T17:00:00Z,28.8667,-90.4833,10.0,9.38,118.0,,'11111222,11111222,99999999' 
WAVCIS,ioos:station:WAVCIS:CSI06:1,2012-03-07T18:00:00Z,28.8667,-90.4833,10.0,8.42,124.0,,'11111222,11111222,99999999' 
WAVCIS,ioos:station:WAVCIS:CSI06:1,2012-03-07T19:00:00Z,28.8667,-90.4833,10.0,6.671,113.0,,'11111222,11111222,99999999' 
WAVCIS,ioos:station:WAVCIS:CSI06:1,2012-03-07T20:00:00Z,28.8667,-90.4833,10.0,6.835,93.0,,'11111222,11111222,99999999' 
WAVCIS,ioos:station:WAVCIS:CSI06:1,2012-03-07T21:00:00Z,28.8667,-90.4833,10.0,7.38,97.0,,'11111222,11111222,99999999' 
WAVCIS,ioos:station:WAVCIS:CSI06:1,2012-03-07T22:00:00Z,28.8667,-90.4833,10.0,6.752,99.0,,'11111222,11111222,99999999' 
WAVCIS,ioos:station:WAVCIS:CSI06:1,2012-03-07T23:00:00Z,28.8667,-90.4833,10.0,8.4,100.0,,'11111222,11111222,99999999' 
WAVCIS,ioos:station:WAVCIS:CSI06:1,2012-03-08T00:00:00Z,28.8667,-90.4833,10.0,8.63,106.0,,'11111222,11111222,99999999' 
WAVCIS,ioos:station:WAVCIS:CSI06:1,2012-03-08T01:00:00Z,28.8667,-90.4833,10.0,8.88,108.0,,'11111222,11111222,99999999' 
WAVCIS,ioos:station:WAVCIS:CSI06:1,2012-03-08T02:00:00Z,28.8667,-90.4833,10.0,9.6,114.0,,'11111222,11111222,99999999' 
WAVCIS,ioos:station:WAVCIS:CSI06:1,2012-03-08T03:00:00Z,28.8667,-90.4833,10.0,10.65,116.0,,'11111222,11111222,99999999' 
WAVCIS,ioos:station:WAVCIS:CSI06:1,2012-03-08T04:00:00Z,28.8667,-90.4833,10.0,11.49,119.0,,'11111222,11111222,99999999' 
WAVCIS,ioos:station:WAVCIS:CSI06:1,2012-03-08T05:00:00Z,28.8667,-90.4833,10.0,12.19,121.0,,'11111222,11111222,99999999' 
WAVCIS,ioos:station:WAVCIS:CSI06:1,2012-03-08T06:00:00Z,28.8667,-90.4833,10.0,11.18,123.0,,'11111222,11111222,99999999' 
WAVCIS,ioos:station:WAVCIS:CSI06:1,2012-03-08T07:00:00Z,28.8667,-90.4833,10.0,10.65,123.0,,'11111222,11111222,99999999' 
WAVCIS,ioos:station:WAVCIS:CSI06:1,2012-03-08T08:00:00Z,28.8667,-90.4833,10.0,9.64,123.0,,'11111222,11111222,99999999' 
WAVCIS,ioos:station:WAVCIS:CSI06:1,2012-03-08T09:00:00Z,28.8667,-90.4833,10.0,8.44,123.0,,'11111222,11111222,99999999' 
WAVCIS,ioos:station:WAVCIS:CSI06:1,2012-03-08T10:00:00Z,28.8667,-90.4833,10.0,8.44,124.0,,'11111222,11111222,99999999' 
WAVCIS,ioos:station:WAVCIS:CSI06:1,2012-03-08T11:00:00Z,28.8667,-90.4833,10.0,8.23,121.0,,'11111222,11111222,99999999' 
WAVCIS,ioos:station:WAVCIS:CSI06:1,2012-03-08T12:00:00Z,28.8667,-90.4833,10.0,9.12,130.0,,'11111222,11111222,99999999' 
WAVCIS,ioos:station:WAVCIS:CSI06:1,2012-03-08T13:00:00Z,28.8667,-90.4833,10.0,9.43,124.0,,'11111222,11111222,99999999' 
WAVCIS,ioos:station:WAVCIS:CSI06:1,2012-03-08T14:00:00Z,28.8667,-90.4833,10.0,8.15,129.0,,'11111222,11111222,99999999' 
WAVCIS,ioos:station:WAVCIS:CSI06:1,2012-03-08T15:00:00Z,28.8667,-90.4833,10.0,6.615,131.0,,'11111222,11111222,99999999' 
WAVCIS,ioos:station:WAVCIS:CSI06:1,2012-03-08T16:00:00Z,28.8667,-90.4833,10.0,6.273,132.0,,'11111222,11111222,99999999' 
WAVCIS,ioos:station:WAVCIS:CSI06:1,2012-03-08T17:00:00Z,28.8667,-90.4833,10.0,7.04,127.0,,'11111222,11111222,99999999' 
WAVCIS,ioos:station:WAVCIS:CSI06:1,2012-03-08T18:00:00Z,28.8667,-90.4833,10.0,8.18,125.0,,'11111222,11111222,99999999' 
WAVCIS,ioos:station:WAVCIS:CSI06:1,2012-03-08T19:00:00Z,28.8667,-90.4833,10.0,6.469,127.0,,'11111222,11111222,99999999' 
WAVCIS,ioos:station:WAVCIS:CSI06:1,2012-03-08T20:00:00Z,28.8667,-90.4833,10.0,6.021,120.0,,'11111222,11111222,99999999' 
WAVCIS,ioos:station:WAVCIS:CSI06:1,2012-03-08T21:00:00Z,28.8667,-90.4833,10.0,6.397,126.0,,'11111222,11111222,99999999' 
WAVCIS,ioos:station:WAVCIS:CSI06:1,2012-03-08T22:00:00Z,28.8667,-90.4833,10.0,6.801,126.0,,'11111222,11111222,99999999' 
WAVCIS,ioos:station:WAVCIS:CSI06:1,2012-03-08T23:00:00Z,28.8667,-90.4833,10.0,6.575,131.0,,'11111222,11111222,99999999' 
WAVCIS,ioos:station:WAVCIS:CSI06:1,2012-03-09T00:00:00Z,28.8667,-90.4833,10.0,6.918,139.0,,'11111222,11111222,99999999' 
WAVCIS,ioos:station:WAVCIS:CSI06:1,2012-03-09T01:00:00Z,28.8667,-90.4833,10.0,6.304,133.0,,'11111222,11111222,99999999' 
WAVCIS,ioos:station:WAVCIS:CSI06:1,2012-03-09T02:00:00Z,28.8667,-90.4833,10.0,6.831,133.0,,'11111222,11111222,99999999' 
WAVCIS,ioos:station:WAVCIS:CSI06:1,2012-03-09T03:00:00Z,28.8667,-90.4833,10.0,7.66,133.0,,'11111222,11111222,99999999' 
WAVCIS,ioos:station:WAVCIS:CSI06:1,2012-03-09T04:00:00Z,28.8667,-90.4833,10.0,5.819,131.0,,'11111222,11111222,99999999' 
WAVCIS,ioos:station:WAVCIS:CSI06:1,2012-03-09T05:00:00Z,28.8667,-90.4833,10.0,8.2,135.0,,'11111222,11111222,99999999' 